Regional Weather Roundup
Issued by NWS

Home | Current Version | Previous Version | Graphics & Text | Print | Product List | Glossary On
Versions: 1 2 3 4 5 6 7 8 9 10 11 12 13 14 15 16 17 18 19 20 21 22 23 24 25 26 27 28 29 30 31 32 33 34 35 36 37 38 39 40 41 42 43 44 45 46 47 48 49 50
995
ASUS45 KSLC 061110
RWRUT

UTAH REGIONAL WEATHER ROUNDUP
NATIONAL WEATHER SERVICE SALT LAKE CITY UT
500 AM MDT FRI MAY 06 2016

UTZ001>011-023>025-061200-

NORTHERN UTAH

CITY           SKY/WX    TMP DP  RH WIND       PRES   REMARKS
BRIGHAM CITY   CLOUDY    69  34  27 E13G21    29.81S
HILL AFB       CLOUDY    65  38  36 E20G26    29.83R
LOGAN          CLOUDY    56  44  64 CALM      29.84R
OGDEN          CLOUDY    69  36  29 E18       29.79S
PROVO AIRPORT  CLOUDY    63  43  48 E5        29.81F
SALT LAKE CITY CLOUDY    70  36  28 E17       29.79R
VERNAL         CLOUDY    59  42  53 NW10G16   29.91F
WENDOVER       CLOUDY    66  37  34 N15       29.76S
HEBER CITY     CLOUDY    55  43  62 W5        29.90S

$$

UTZ012>022-026-027-061200-

SOUTHERN/CENTRAL UTAH

CITY           SKY/WX    TMP DP  RH WIND       PRES   REMARKS
BLANDING       CLOUDY    59  36  41 S7        29.97R
BRYCE CANYON   CLOUDY    40  29  64 NE6       29.96S
CEDAR CITY     CLOUDY    47  32  56 NE5       29.84R
DELTA          CLOUDY    55  36  47 NE6       29.78S
HANKSVILLE     CLOUDY    61  41  48 SE3       29.80S
MILFORD        CLOUDY    52  30  43 S8        29.82S
MOAB/CYNLANDS  MOCLDY    66  39  37 E9        29.78R
PRICE          CLOUDY    59  38  45 N15       29.86F
ST GEORGE      CLOUDY    63  28  27 SE9       29.75F
KANAB          CLOUDY    48  34  57 N3        29.88F

$$

REGIONAL REPORTS     COLORADO/ARIZONA

CITY           SKY/WX    TMP DP  RH WIND       PRES   REMARKS
CRAIG, CO      CLOUDY    41  35  79 CALM      30.02R
GRAND JUNCTION PTCLDY    64  36  35 NE18      29.87S
RIFLE          CLOUDY    53  37  54 S10       29.97F
MONTROSE       CLOUDY    62  32  32 S6        29.96S
CORTEZ         CLOUDY    65  30  27 SE16G32   29.91F
PAGE, AZ       CLOUDY    62  27  26 CALM      29.82S
GRAND CANYON   MOCLDY    42  19  39 VRB3      29.94F
KINGMAN        CLEAR     58  30  34 E14G22    29.78S
FLAGSTAFF      MOCLDY    42  22  44 SW9       29.94F

$$

REGIONAL REPORTS    NEVADA/IDAHO/WYOMING

CITY           SKY/WX    TMP DP  RH WIND       PRES   REMARKS
LAS VEGAS, NV  PTCLDY    61  39  44 S12       29.67R
ELY            CLOUDY    48  31  51 SE16G22   29.92R
ELKO           MOCLDY    55  32  41 NE14      29.79F
POCATELLO, ID  CLOUDY    56  44  64 E9        29.88F
BURLEY         CLOUDY    55  45  68 W12G18    29.83R
EVANSTON, WY   CLOUDY    54  35  48 E9        30.01R
ROCK SPRINGS   CLOUDY    51  33  50 CALM      30.03R
KEMMERER         N/A     50  36  57 E14       30.02S

$$




USA.gov is the U.S. government's official web portal to all federal, state and local government web resources and services.